Location: Plainartige
(45.6866°N, 1.7993°E)
Time: 20:13:32
(UTC+00:00)

Cosmos 2219 Rocket - Pass Details

Date: 03 March 2021
Orbit: 826 x 848 km, 71.0° (Epoch: 13 April)

Event Time Altitude Azimuth Distance (km) Brightness Sun altitude
Rises 21:07:26 0° 235° (SW) 3,359 5.6 -35.3°
Reaches altitude 10° 21:10:07 10° 245° (WSW) 2,431 4.9 -35.7°
Maximum altitude 21:15:03 32° 308° (NW) 1,409 3.7 -36.4°
Drops below altitude 10° 21:20:02 10° 10° (N) 2,454 4.8 -37.1°
Sets 21:22:46 0° 21° (NNE) 3,395 5.5 -37.5°
